Location: McDonald Observatory
(30.6717°N, 104.0221°W)
Time: 05:55:42
(UTC-06:00)

Daily predictions for brighter satellites

Satellite Brightness Start Highest point End
(mag) Time Altitude Azimuth Time Altitude Azimuth Time Altitude Azimuth
Cosmos 1980 Rocket 3.6 04:54:42 30° NNE 04:54:42 30° NNE 04:57:25 10° NNE
ATLAS 5 CENTAUR R/B 3.4 04:59:39 30° ENE 04:59:39 30° ENE 05:02:16 10° NE
Milstar 3 Cent rocket 4.0 04:58:16 21° SSE 04:58:41 22° SSE 05:03:35 10° E
CENTAUR R/B 4.0 05:15:27 31° SSW 05:15:27 31° SSW 05:19:59 10° S
SJ 16-02 3.8 05:16:20 14° N 05:16:20 14° N 05:17:00 10° N
IDEFIX/ARIANE 42P 4.4 05:16:46 10° NE 05:21:18 30° E 05:25:47 10° SSE
Cosmos 1125 Rocket 4.1 05:26:34 44° N 05:26:34 44° N 05:30:10 10° N
Hubble Space Telescope 1.6 05:28:54 46° ESE 05:28:54 46° ESE 05:31:59 10° E
SL-16 R/B 2.7 05:24:27 13° S 05:29:20 57° ESE 05:34:52 10° NNE
USA 215 3.1 05:24:10 10° SSE 05:30:39 68° SW 05:32:24 49° WNW
BREEZE-M DEB (TANK) 4.1 05:34:48 51° WNW 05:36:20 78° SW 05:54:19 10° SE
Intelsat 5-3 Rocket 4.1 05:40:01 28° SSW 05:40:51 30° S 05:48:16 10° ESE
Cosmos 1605 Rocket 3.8 05:35:18 10° S 05:41:26 79° W 05:47:32 10° N
BREEZE-M DEB (TANK) 3.6 05:42:18 23° NNE 05:42:18 23° NNE 05:44:07 10° E
Okean-O 4.2 05:38:46 10° NNE 05:42:50 35° E 05:46:52 10° SSE
CZ-2C R/B 4.1 05:40:01 10° NNE 05:44:42 35° E 05:49:25 10° SSE
SEDSat Delta rocket 3.1 05:44:59 62° WNW 05:45:48 85° N 05:50:23 10° E
CZ-3 R/B 2.9 05:35:27 31° W 05:46:45 77° SSW 05:53:15 10° ESE
ASTRO E2 4.0 05:49:29 28° S 05:49:29 28° S 05:52:20 10° SE
Meteor 1-26 Rocket 4.4 05:46:01 10° S 05:51:54 78° E 05:57:45 10° N
COSMOS 2455 3.0 05:53:49 10° NNW 05:59:52 75° ENE 06:05:51 10° SSE
Delta 168 3.7 06:00:14 25° S 06:00:34 25° S 06:03:12 10° ESE
CZ-4B R/B 3.6 05:56:43 10° N 06:01:46 39° WNW 06:03:38 30° WSW
PSLV R/B 4.2 06:02:56 30° S 06:03:45 37° SE 06:06:37 10° ENE
Feng Yun 1-1 Rocket 4.3 06:00:54 10° NNE 06:06:33 83° ESE 06:12:19 10° SSW
USA 116 4.0 06:05:25 10° S 06:09:50 77° WSW 06:14:49 10° NNW
Lacrosse 5 rocket 2.0 06:10:14 32° WSW 06:10:14 32° WSW 06:13:55 10° S
Cosmos 1459 Rocket 4.5 06:04:15 10° S 06:10:22 65° E 06:16:37 10° NNE
Cosmos 405 Rocket 2.9 06:08:16 22° SW 06:10:29 46° W 06:14:16 10° N
Cosmos 2263 Rocket 3.5 06:07:45 10° N 06:13:06 41° ENE 06:18:24 10° SE
Cosmos 2173 Rocket 4.3 06:07:50 10° S 06:13:59 68° E 06:20:05 10° NNE
USA 102 2.8 06:15:16 36° NNE 06:16:05 85° ESE 06:20:03 10° SSW
SKYMED 2 3.6 06:14:01 10° SSE 06:18:20 80° ENE 06:22:41 10° N
Okean O Rocket 3.9 06:15:52 10° NNW 06:15:57 10° NNW 06:15:57 10° NNW
Cosmos 1269 Rocket 3.9 06:13:18 10° NNW 06:18:35 74° WSW 06:23:49 10° S
BREEZE-M R/B 4.3 06:15:44 17° WSW 06:21:00 57° NW 06:27:00 10° NE
Cosmos 1802 Rocket 4.5 06:15:46 10° S 06:22:05 67° E 06:28:23 10° NNE
Delta 2 Rocket 3.0 06:20:26 26° WSW 06:22:37 88° NNW 06:26:17 10° ENE
Cosmos 2061 Rocket 4.3 06:16:51 10° S 06:22:59 69° E 06:29:08 10° NNE
ISS -2.6 06:19:58 10° SSW 06:23:04 41° SE 06:26:11 10° ENE
Cosmos 2322 Rocket 2.5 06:20:46 10° SW 06:26:08 43° WNW 06:31:33 10° N
Meteor 1-14 Rocket 4.4 06:21:41 10° N 06:27:40 84° E 06:33:31 10° S
Cosmos 405 3.5 06:25:33 10° NNW 06:28:51 36° W 06:32:09 10° SSW
PAYLOAD A 4.1 06:27:41 10° N 06:32:21 48° WNW 06:37:09 10° SSW
EO 1 Del DPAF 4.2 06:29:49 10° SSE 06:33:31 51° ENE 06:37:14 10° N
Cosmos 2360 Rocket 2.3 06:27:57 10° SSW 06:33:37 83° ESE 06:39:18 10° NNE
Landsat 4 3.9 06:30:50 10° SSE 06:34:32 72° ENE 06:38:14 10° N
NOAA 6 4.4 06:31:02 10° N 06:35:52 42° WNW 06:40:41 10° SW
Cosmos 1461 3.0 06:32:04 10° SW 06:36:14 61° WNW 06:40:39 10° NNE
Cosmos 1980 Rocket 4.1 06:36:30 10° NW 06:36:30 10° NW 06:36:37 10° NW
Radarsat Rocket 4.0 06:30:36 10° N 06:36:29 68° WNW 06:42:54 10° SSW
Cosmos 1703 Rocket 3.7 06:32:13 10° S 06:36:40 84° E 06:41:10 10° N
DELTA 2 R/B(2) 4.0 06:38:44 14° WNW 06:41:56 69° SSW 06:44:07 10° SE
ATLAS 5 CENTAUR R/B 3.4 06:41:15 13° WNW 06:42:46 15° NW 06:45:29 10° NNW
Lacrosse 4 Rocket 2.9 06:40:17 10° S 06:44:02 39° ESE 06:47:48 10° NE
OAO 3 Rocket 4.5 06:42:32 13° W 06:45:58 26° SSW 06:50:05 10° SSE
Aureole 2 Rocket 2.0 06:45:18 10° SSW 06:47:54 45° WNW 06:50:30 10° N
Meteor 1-25 Rocket 4.3 06:43:08 10° NNW 06:48:51 69° W 06:54:36 10° S
SWIFT 4.3 06:49:59 10° SW 06:53:08 20° S 06:56:17 10° SE
Cosmos 1908 Rocket 3.5 06:52:13 10° NNW 06:56:33 68° W 07:00:50 10° S
Cosmos 1733 Rocket 4.2 06:55:56 10° NW 06:59:22 23° W 07:02:48 10° SW
MTI 4.4 06:57:35 10° SSW 07:00:30 33° W 07:03:25 10° NNW
IDEFIX/ARIANE 42P 3.6 06:56:32 10° NNW 07:00:42 25° WNW 07:04:50 10° WSW
SMAP 3.6 07:00:22 10° NNE 07:05:00 67° E 07:09:37 10° S
Cosmos 1725 Rocket 4.1 06:59:02 10° S 07:05:19 89° WNW 07:11:40 10° N
Cosmos 2251 Rocket 3.7 07:00:47 10° NNW 07:06:06 83° ENE 07:11:26 10° SSE
Okean 1-7 3.1 07:02:09 10° SSW 07:06:22 59° W 07:10:40 10° N
